SIRIUSSAT-1

Last updated on Dec. 11, 2020, 12:02 a.m. UTC

1 43595U 98067PG  20344.55055662  .07916525  12514-4  56251-3 0  9997
2 43595  51.6588  97.6693 0009437  42.2825  52.9592 16.39998780132780

Satellite is not in orbit.